Showing default

COSMOS 2339, 24727

Orbit data source: Space-Track

COSMOS 2339, 24727 is a payload satellite owned by VKS (CIS) in LEO that was launched on Fri, 14 Feb 1997 UTC via a TSIKLON-3 launch vehicle from the Plesetsk Missile And Space Complex (PKMTR). Payload-class satellites include a variety of spacecraft equipped with specific instruments for various scientific and technological missions. These include communications satellites like Starlink; space stations such as the ISS; scientific satellites like the Hubble; Earth observation satellites from companies like Planet Labs, Umbra, and HawkEye 360; GPS; miniature CubeSats for education and research; and military/defense satellites.

Loading next visibility...
Identifier
24727, 1997-006C
Orbit
LEO
Country
Flag of CISCIS
Related business
Manufacturer
NPO PM
Mission
Non-operational Defense Communications
Bus & Motor
STRELA-3, Unknown motor
Mass
225 kg wet, 225 kg dry
Launch date (UTC)
1997-02-14 (29 years ago)
Launch vehicle
TSIKLON-3
Launch site
Plesetsk Missile And Space Complex (PKMTR)
Object type
Payload
Rocket body
Debris
Shape & HBR
Cyl + 1 Ant, 3.5 m
Radar Cross Section
1.583 m², Large (>1 m²)

Expand to show TLE details & history
Last TLE update: 5 hours ago

TLE from 5 hours ago
0 COSMOS 2339
1 24727U 97006C   26038.26841718  .00000046  00000-0  19735-3 0  9998
2 24727  82.6093 337.9685 0000982  46.8651  69.9034 12.62377024335187
Epoch: 2026-02-07T06:26Z
TLE epoch observation values (Epoch: 2026-02-07T06:26:31.244Z)
Latitude
62.37773°
Longitude
-90.33595°
Altitude
1,423.548 km
Speed
7.155 km/s
True Right ascension
09h 34m 45s
True Declination
62° 14' 54"
Sunlit
Object was in full shadow at epoch
Visualization orbit readout
Latitude
Unknown
Longitude
Unknown
Altitude
Unknown
Speed
Unknown
Apparent Right ascension
Unknown
Apparent Declination
Unknown
Sunlit
N/A
Visualization observer readout
Local Sidereal Time
14:04:53
Azimuth
Unknown
Elevation
Unknown
Doppler factor
Unknown
Orbital elements
Apogee altitude
1,411.233 km
Perigee altitude
1,409.703 km
Semi-major axis
7,788.605 km
Eccentricity
0.0001
Inclination
82.6093°
RAAN
337.9685°
Arg. of periapsis
46.8651°
True anomaly
69.91397°
Mean anomaly
69.9034°
Eccentric anomaly
69.90868°
Mean motion
3.15757 °/min
Orbital period
114.01 mins
BSTAR
0.00019735
Loading maneuver chart data...
Computing Atmospheric mass density...
Loading historical data...
Loading historical data...
Loading historical data...
Loading historical data...
Loading historical data...
Loading historical data...
Loading historical data...

Documentation

Showing up to 5 results
|